Exeter, United Kingdom

8:08 AM BST on September 20, 2017 (GMT +0100)
Exeter

Weather History for EGTE - October, 2012

Change the Weather History Date:

Friday, October 5, 2012

  Actual Average Record
Temperature  
Mean Temperature 54 °F -  
Max Temperature 59 °F 57 °F 68 °F (2002)
Min Temperature 48 °F 44 °F 33 °F (1999)
Degree Days  
Heating Degree Days 12    
Growing Degree Days 4 (Base 50)    
Moisture  
Dew Point 51 °F    
Average Humidity 92    
Maximum Humidity 100    
Minimum Humidity 72    
Precipitation  
Precipitation 0.35 in - - ()
Sea Level Pressure  
Sea Level Pressure 29.76 in    
Wind  
Wind Speed 8 mph ()    
Max Wind Speed 22 mph    
Max Gust Speed -    
Visibility 4.4 miles    
Events Rain    
Averages and records for this station are not official NWS values.
T = Trace of Precipitation, MM = Missing Value Source: Averaged Metar Reports

Daily Weather History Graph

Daily Weather History Graph

Search for Another Location

Airport or City:

Trip Planner

Search our weather history database for the weather conditions in past years. The results will help you decide how hot, cold, wet, or windy it might be!

Date:

Astronomy

Oct. 05, 2012 Rise Set
Actual Time 7:20 AM BST 6:42 PM BST
Civil Twilight 6:48 AM BST 7:14 PM BST
Nautical Twilight 6:10 AM BST 7:52 PM BST
Astronomical Twilight 5:31 AM BST 8:31 PM BST
Moon 9:23 PM BST (10/5) 12:47 PM BST (10/5)
Length of Visible Light 12h 26m
Length of Day
11h 21m
Waning Gibbous, 76% of the Moon is Illuminated
Oct 5
Waning Gibbous
Oct 8
Last Quarter
Oct 15
New
Oct 22
First Quarter
Oct 29
Full

Hourly Weather History & Observations

Time (BST) Temp. Dew Point Humidity Pressure Visibility Wind Dir Wind Speed Gust Speed Precip Events Conditions
12:20 AM 55.4 °F 55.4 °F 100% 29.59 in 6.2 mi South 18.4 mph - N/A Rain Rain
12:50 AM 58 °F 58 °F 100%  in - SW 15.0 mph - -  
12:50 AM 57.2 °F 57.2 °F 100% 29.59 in 6.2 mi SSW 15.0 mph - N/A Rain Rain
1:20 AM 59.0 °F 57.2 °F 94% 29.56 in 6.2 mi SSW 20.7 mph - N/A Rain Rain
1:50 AM 59.0 °F 59.0 °F 100% 29.56 in 6.2 mi SSW 21.9 mph - N/A Rain Rain
3:50 AM 61 °F 59 °F 91%  in - West 13.8 mph - -  
6:20 AM 51.8 °F 50.0 °F 94% 29.68 in 6.2 mi West 6.9 mph - N/A   Scattered Clouds
6:50 AM 52 °F 50 °F 89%  in - WNW 2.3 mph - -  
6:50 AM 51.8 °F 50.0 °F 94% 29.68 in 6.2 mi West 4.6 mph - N/A   Scattered Clouds
7:20 AM 51.8 °F 50.0 °F 94% 29.71 in 6.2 mi Variable 1.2 mph - N/A   Partly Cloudy
7:50 AM 51.8 °F 50.0 °F 94% 29.71 in 6.2 mi Variable 1.2 mph - N/A   Partly Cloudy
8:20 AM 51.8 °F 50.0 °F 94% 29.74 in 6.2 mi Variable 2.3 mph - N/A   Partly Cloudy
8:50 AM 53.6 °F 50.0 °F 88% 29.74 in 6.2 mi Variable 3.5 mph - N/A   Partly Cloudy
9:20 AM 53.6 °F 50.0 °F 88% 29.77 in 6.2 mi South 4.6 mph - N/A   Partly Cloudy
9:50 AM 56 °F 52 °F 82%  in - SSW 8.1 mph - -  
9:50 AM 55.4 °F 51.8 °F 88% 29.77 in 6.2 mi South 6.9 mph - N/A   Partly Cloudy
10:20 AM 57.2 °F 51.8 °F 82% 29.77 in 6.2 mi South 8.1 mph - N/A   Partly Cloudy
10:50 AM 57.2 °F 51.8 °F 82% 29.77 in 6.2 mi SSW 6.9 mph - N/A   Scattered Clouds
11:20 AM 59.0 °F 50.0 °F 72% 29.77 in 6.2 mi WSW 10.4 mph - N/A   Scattered Clouds
11:50 AM 59.0 °F 50.0 °F 72% 29.80 in 6.2 mi West 10.4 mph - N/A   Scattered Clouds
12:20 PM 59.0 °F 50.0 °F 72% 29.80 in 6.2 mi WSW 8.1 mph - N/A   Scattered Clouds
12:50 PM 54 °F 51 °F 85%  in - NW 8.1 mph - -  
12:50 PM 59.0 °F 51.8 °F 77% 29.83 in 4.3 mi West 9.2 mph - N/A Rain Light Rain
1:20 PM 55.4 °F 51.8 °F 88% 29.83 in 6.2 mi West 8.1 mph - N/A   Scattered Clouds
1:50 PM 55.4 °F 51.8 °F 88% 29.80 in 6.2 mi WNW 5.8 mph - N/A   Scattered Clouds
2:20 PM 55.4 °F 51.8 °F 88% 29.80 in 6.2 mi West 6.9 mph - N/A Rain Light Rain
2:50 PM 53.6 °F 50.0 °F 88% 29.83 in 2.5 mi Variable 3.5 mph - N/A Rain Rain
3:20 PM 53.6 °F 51.8 °F 94% 29.83 in 3.1 mi NNW 4.6 mph - N/A Rain Rain
3:50 PM 51 °F 50 °F 97%  in - NNW 3.5 mph - -  
3:50 PM 51.8 °F 50.0 °F 94% 29.83 in 3.1 mi NW 4.6 mph - N/A Rain Rain
4:20 PM 51.8 °F 50.0 °F 94% 29.83 in 2.8 mi NW 5.8 mph - N/A Rain Rain
4:50 PM 51.8 °F 50.0 °F 94% 29.83 in 2.8 mi Variable 2.3 mph - N/A Rain Rain
5:20 PM 51.8 °F 50.0 °F 94% 29.83 in 2.8 mi Variable 1.2 mph - N/A Rain Rain
5:50 PM 50.0 °F 50.0 °F 100% 29.83 in 2.5 mi Variable 2.3 mph - N/A Rain Rain
6:20 PM 50.0 °F 50.0 °F 100% 29.80 in 2.5 mi East 3.5 mph - N/A Rain Light Rain
6:50 PM 50 °F 50 °F 100%  in - SE 2.3 mph - -  
6:50 PM 50.0 °F 50.0 °F 100% 29.80 in 2.8 mi ESE 3.5 mph - N/A   Light Drizzle
7:20 PM 50.0 °F 50.0 °F 100% 29.80 in 2.8 mi Variable 2.3 mph - N/A   Light Drizzle
7:50 PM 50.0 °F 50.0 °F 100% 29.80 in 1.9 mi Variable 3.5 mph - N/A Rain Light Rain
8:20 PM 50.0 °F 50.0 °F 100% 29.80 in 1.9 mi NNE 4.6 mph - N/A Rain Light Rain
8:50 PM 50.0 °F 50.0 °F 100% 29.80 in 1.6 mi NNE 6.9 mph - N/A Rain Light Drizzle
9:20 PM 50.0 °F 48.2 °F 94% 29.77 in 1.9 mi NNE 5.8 mph - N/A Rain Rain
9:50 PM 49 °F 49 °F 100%  in - NNE 3.5 mph - -  
9:50 PM 50.0 °F 48.2 °F 94% 29.77 in 1.9 mi North 5.8 mph - N/A Rain Rain
10:20 PM 48.2 °F 48.2 °F 100% 29.77 in 2.2 mi NNE 4.6 mph - N/A Rain Rain
10:50 PM 48.2 °F 48.2 °F 100% 29.77 in 2.8 mi North 6.9 mph - N/A Rain Rain
11:20 PM 48.2 °F 48.2 °F 100% 29.77 in 1.9 mi North 9.2 mph - N/A Rain Rain
11:50 PM 48.2 °F 48.2 °F 100% 29.77 in 2.5 mi NNE 10.4 mph - N/A Rain Rain